Probability
3 0 0 0 0 0 0 0 0 0 0 0 0 0 0 0 0 0 0 0 0 0 0 0 0 0 0 0 0 0 0 0 0 0 0 0 0 0 0 0 0 0 0
3 0 0 0 0 0 0 0 0 0 0 0 0 0 0 0 0 0 0 0 0 0 0 0 0 0 0 0 0 0 0 0 0 0 0 0 0 0 0 0 0 0 0
0 0 0 0 0 0 0 0 0 0 0 0 0 0 0 0 0 0 0 0 0 0 0 0 0 0 0 0 0 0 0 0 0 0 0 0 0 0 0 0 0 0 0
0 0 0 0 0 0 0 0 0 0 0 0 0 0 0 0 0 0 0 0 0 0 0 0 0 0 0 0 0 0 0 0 0 0 0 0 0 0 0 0 0 0 0
0 0 0 0 0 0 0 0 0 0 0 0 0 0 0 0 0 0 0 0 0 0 0 0 0 0 0 0 0 0 0 0 0 0 0 0 0 0 0 0 0 0 0
0 0 0 0 0 0 0 0 0 0 0 0 0 0 0 0 0 0 0 0 0 0 0 0 0 0 0 0 0 0 0 0 0 0 0 0 0 0 0 0 0 0 0
0 0 0 0 0 0 0 0 0 0 0 0 0 0 0 0 0 0 0 0 0 0 0 0 0 0 0 0 0 0 0 0 0 0 0 0 0 0 0 0 0 0 0
0 0 0 0 0 0 0 0 0 0 0 0 0 0 0 0 0 0 0 0 0 0 0 0 0 0 0 0 0 0 0 0 0 0 0 0 0 0 0 0 0 0 0
0 0 0 0 0 0 0 0 0 0 0 0 0 0 0 0 0 0 0 0 0 0 0 0 0 0 0 0 0 0 0 0 0 0 0 0 0 0 0 0 0 0 0
0 0 0 0 0 0 0 0 0 0 0 0 0 0 0 0 0 0 0 0 0 0 0 0 0 0 0 0 0 0 0 0 0 0 0 0 0 0 0 0 0 0 0
0 0 0 0 0 0 0 0 0 0 0 0 0 0 0 0 0 0 0 0 0 0 0 0 0 0 0 0 0 0 0 0 0 0 0 0 0 0 0 0 0 0 0
0 0 0 0 0 0 0 0 0 0 0 0 0 0 0 0 0 0 0 0 0 0 0 0 0 0 0 0 0 0 0 0 0 0 0 0 0 0 0 0 0 0 0
0 0 0 0 0 0 0 0 0 0 0 0 0 0 0 0 0 0 0 0 0 0 0 0 0 0 0 0 0 0 0 0 0 0 0 0 0 0 0 0 0 0 0
0 0 0 0 0 0 0 0 0 0 0 0 0 0 0 0 0 0 0 0 0 0 0 0 0 0 0 0 0 0 0 0 0 0 0 0 0 0 0 0 0 0 0
0 0 0 0 0 0 0 0 0 0 0 0 0 0 0 0 0 0 0 0 0 0 0 0 0 0 0 0 0 0 0 0 0 0 0 0 0 0 0 0 0 0 0
0 0 0 0 0 0 0 0 0 0 0 0 0 0 0 0 0 0 0 0 0 0 0 0 0 0 0 0 0 0 0 0 0 0 0 0 0 0 0 0 0 0 0
0 0 0 0 0 0 0 0 0 0 0 0 0 0 0 0 0 0 0 0 0 0 0 0 0 0 0 0 0 0 0 0 0 0 0 0 0 0 0 0 0 0 0
0 0 0 0 0 0 0 0 0 0 0 0 0 0 0 0 0 0 0 0 0 0 0 0 0 0 0 0 0 0 0 0 0 0 0 0 0 0 0 0 0 0 0
0 0 0 0 0 0 0 0 0 0 0 0 0 0 0 0 0 0 0 0 0 0 0 0 0 0 0 0 0 0 0 0 0 0 0 0 0 0 0 0 0 0 0
0 0 0 0 0 0 0 0 0 0 0 0 0 0 0 0 0 0 0 0 0 0 0 0 0 0 0 0 0 0 0 0 0 0 0 0 0 0 0 0 0 0 0
0 0 0 0 0 0 0 0 0 0 0 0 0 0 0 0 0 0 0 0 0 0 0 0 0 0 0 0 0 0 0 0 0 0 0 0 0 0 0 0 0 0 0
0 0 0 0 0 0 0 0 0 0 0 0 0 0 0 0 0 0 0 0 0 0 0 0 0 0 0 0 0 0 0 0 0 0 0 0 0 0 0 0 0 0 0
0 0 0 0 0 0 0 0 0 0 0 0 0 0 0 0 0 0 0 0 0 0 0 0 0 0 0 0 0 0 0 0 0 0 0 0 0 0 0 0 0 0 0
0 0 0 0 0 0 0 0 0 0 0 0 0 0 0 0 0 0 0 0 0 0 0 0 0 0 0 0 0 0 0 0 0 0 0 0 0 0 0 0 0 0 0
0 0 0 0 0 0 0 0 0 0 0 0 0 0 0 0 0 0 0 0 0 0 0 0 0 0 0 0 0 0 0 0 0 0 0 0 0 0 0 0 0 0 0
0 0 0 0 0 0 0 0 0 0 0 0 0 0 0 0 0 0 0 0 0 0 0 0 0 0 0 0 0 0 0 0 0 0 0 0 0 0 0 0 0 0 0
Height
5741 5739 5736 5732 5729 5727 5725 5723 5722 5721 5720 5718 5717 5715 5713 5712 5710 5709 5707 5706 5704 5703 5701 5700 5699 5697 5696 5695 5694 5693 5692 5692 5691 5691 5691 5691 5691 5691 5692 5693 5694 5695 5696
5736 5733 5730 5727 5724 5722 5720 5719 5718 5716 5715 5713 5712 5710 5708 5706 5705 5703 5702 5700 5699 5697 5696 5694 5693 5691 5689 5688 5686 5686 5684 5683 5682 5682 5681 5682 5682 5682 5682 5683 5684 5685 5686
5730 5728 5725 5723 5720 5718 5716 5714 5713 5712 5711 5709 5707 5705 5703 5701 5700 5698 5696 5695 5693 5691 5689 5688 5686 5684 5683 5681 5680 5678 5677 5675 5674 5673 5672 5672 5672 5672 5673 5674 5674 5675 5676
5725 5722 5719 5717 5716 5713 5712 5710 5708 5707 5706 5704 5702 5700 5698 5696 5694 5693 5691 5689 5687 5685 5683 5681 5680 5678 5676 5675 5673 5671 5669 5668 5666 5665 5664 5663 5663 5663 5664 5664 5665 5666 5666
5719 5717 5715 5713 5710 5709 5707 5706 5704 5703 5701 5699 5697 5695 5693 5691 5689 5688 5686 5683 5681 5679 5677 5675 5673 5671 5670 5668 5666 5664 5662 5660 5658 5657 5656 5655 5655 5655 5655 5656 5656 5657 5657
5715 5712 5710 5708 5706 5704 5703 5701 5700 5698 5697 5695 5692 5690 5688 5686 5685 5682 5680 5678 5676 5673 5671 5669 5667 5665 5663 5662 5659 5657 5655 5653 5651 5651 5649 5648 5648 5648 5648 5648 5648 5649 5649
5711 5709 5706 5704 5701 5699 5698 5697 5695 5693 5693 5691 5688 5686 5684 5682 5680 5678 5676 5674 5671 5668 5666 5664 5662 5659 5657 5655 5653 5651 5649 5646 5645 5644 5643 5642 5642 5641 5641 5641 5640 5641 5641
5707 5704 5702 5700 5698 5696 5694 5692 5691 5690 5689 5687 5685 5682 5680 5679 5676 5674 5672 5670 5667 5664 5662 5659 5657 5654 5652 5650 5648 5645 5643 5641 5639 5638 5637 5636 5635 5634 5634 5633 5633 5633 5633
5703 5701 5698 5696 5694 5692 5690 5689 5688 5687 5685 5684 5682 5680 5678 5676 5673 5671 5668 5666 5664 5661 5658 5655 5653 5650 5647 5644 5642 5640 5638 5636 5634 5632 5631 5630 5629 5627 5627 5626 5626 5625 5625
5699 5697 5695 5692 5690 5688 5687 5686 5685 5684 5682 5681 5679 5677 5675 5673 5671 5668 5665 5663 5660 5657 5655 5651 5649 5646 5643 5640 5637 5635 5633 5631 5629 5627 5625 5624 5623 5621 5620 5619 5618 5618 5617
5696 5694 5692 5690 5688 5686 5685 5684 5682 5681 5680 5678 5676 5674 5672 5670 5667 5665 5662 5659 5657 5654 5651 5648 5645 5642 5638 5635 5632 5630 5628 5626 5623 5621 5620 5618 5617 5615 5614 5612 5611 5611 5610
5693 5691 5689 5687 5685 5683 5682 5681 5680 5679 5677 5675 5674 5671 5669 5667 5664 5662 5659 5656 5653 5650 5647 5644 5641 5638 5635 5631 5628 5626 5623 5621 5619 5617 5615 5613 5611 5609 5608 5606 5605 5604 5603
5691 5689 5687 5685 5683 5682 5681 5679 5678 5676 5674 5673 5671 5669 5666 5664 5661 5659 5656 5653 5650 5647 5644 5641 5637 5634 5631 5628 5625 5622 5619 5616 5614 5612 5609 5608 5606 5604 5602 5600 5599 5598 5597
5689 5687 5686 5684 5682 5680 5679 5677 5676 5674 5672 5671 5668 5666 5664 5661 5658 5656 5653 5650 5647 5644 5641 5638 5635 5631 5628 5624 5621 5618 5615 5612 5609 5607 5604 5602 5600 5598 5596 5594 5593 5592 5590
5687 5686 5684 5682 5681 5680 5678 5676 5675 5673 5671 5669 5666 5664 5661 5659 5656 5654 5651 5648 5645 5642 5639 5635 5632 5629 5625 5622 5618 5614 5611 5608 5605 5602 5600 5597 5595 5592 5590 5588 5587 5585 5584
5686 5684 5683 5682 5681 5679 5678 5676 5674 5672 5669 5667 5664 5662 5659 5657 5654 5652 5649 5646 5643 5639 5636 5633 5629 5626 5622 5618 5615 5611 5607 5604 5601 5598 5595 5592 5590 5587 5585 5582 5580 5578 5577
5685 5684 5683 5681 5680 5679 5677 5675 5673 5671 5668 5665 5663 5660 5658 5655 5652 5650 5647 5644 5641 5637 5634 5631 5627 5623 5620 5616 5612 5608 5604 5600 5596 5593 5590 5587 5584 5582 5579 5576 5574 5572 5570
5683 5683 5682 5681 5679 5678 5676 5674 5672 5670 5667 5664 5662 5659 5656 5654 5651 5648 5645 5642 5639 5635 5632 5628 5625 5621 5617 5613 5609 5605 5601 5596 5592 5588 5585 5582 5579 5576 5573 5571 5568 5566 5563
5682 5681 5681 5680 5678 5677 5675 5673 5671 5669 5667 5664 5661 5658 5655 5652 5649 5647 5644 5641 5637 5634 5630 5626 5622 5618 5615 5610 5606 5602 5597 5593 5589 5584 5581 5577 5574 5571 5568 5565 5562 5559 5556
5681 5680 5679 5678 5677 5676 5674 5673 5671 5668 5666 5663 5660 5657 5655 5652 5649 5645 5643 5639 5636 5632 5628 5624 5620 5616 5612 5608 5603 5599 5594 5590 5585 5581 5577 5573 5569 5566 5562 5559 5556 5553 5550
5679 5679 5678 5677 5676 5675 5673 5672 5669 5667 5664 5661 5659 5656 5654 5651 5648 5645 5641 5638 5634 5630 5626 5622 5618 5613 5609 5604 5600 5595 5591 5586 5582 5577 5573 5568 5564 5561 5557 5554 5550 5547 5544
5678 5677 5676 5676 5675 5673 5672 5670 5667 5665 5663 5660 5657 5655 5652 5649 5646 5643 5640 5636 5632 5628 5624 5619 5615 5610 5606 5601 5597 5592 5588 5583 5578 5574 5569 5564 5560 5556 5552 5549 5545 5542 5539
5675 5675 5675 5674 5673 5671 5670 5668 5665 5663 5661 5658 5656 5653 5650 5647 5644 5641 5638 5634 5630 5626 5621 5617 5612 5607 5603 5598 5593 5589 5584 5580 5575 5570 5565 5560 5555 5551 5548 5544 5541 5537 5534
5673 5673 5673 5672 5670 5669 5667 5665 5663 5661 5659 5656 5654 5651 5648 5646 5643 5639 5636 5632 5628 5624 5619 5614 5609 5605 5600 5595 5590 5585 5580 5576 5571 5566 5561 5557 5552 5548 5544 5540 5536 5533 5529
5671 5670 5670 5669 5668 5667 5665 5663 5661 5659 5657 5655 5652 5649 5646 5643 5641 5637 5634 5630 5626 5622 5617 5612 5607 5602 5597 5592 5587 5582 5577 5572 5567 5563 5558 5554 5549 5545 5541 5536 5532 5529 5525
5668 5667 5667 5667 5666 5664 5663 5661 5659 5657 5655 5653 5650 5647 5644 5641 5639 5635 5632 5628 5624 5620 5615 5610 5605 5600 5595 5590 5585 5580 5575 5570 5565 5560 5555 5551 5546 5542 5537 5533 5529 5525 5521
Wind_Speed
25 25 25 24 23 21 19 19 18 18 20 20 19 20 20 19 19 19 20 20 21 21 22 22 23 24 24 24 24 24 25 26 28 29 30 30 31 31 32 32 33 34 34
24 24 23 21 20 20 20 18 17 18 18 18 18 18 18 18 18 19 20 21 21 21 21 22 22 23 23 23 24 24 25 26 27 27 29 30 30 30 31 32 32 33 33
24 24 23 21 20 19 19 18 18 18 18 18 18 18 18 18 18 19 20 21 21 22 22 22 21 22 22 22 23 23 23 24 25 25 26 27 28 29 29 30 31 32 32
23 24 23 21 20 20 19 18 17 17 18 18 18 18 19 19 19 19 20 20 20 21 22 21 20 21 21 22 22 22 22 22 23 23 24 25 26 26 27 29 30 31 31
23 23 22 21 19 18 18 17 16 17 17 17 17 18 19 19 18 19 19 20 20 21 20 20 19 20 20 21 22 22 22 22 22 22 23 23 24 25 25 27 28 29 30
21 20 20 20 18 18 17 16 16 16 16 17 18 18 18 18 18 18 18 19 19 18 18 17 18 19 20 21 21 22 22 21 20 20 21 22 23 23 24 26 27 28 28
20 19 19 18 16 16 16 15 15 14 15 16 16 17 17 16 16 17 18 18 18 17 17 17 18 19 20 20 20 21 21 21 20 20 20 20 20 21 22 24 26 27 27
20 18 17 16 16 16 15 14 13 13 13 14 15 15 15 15 15 16 17 17 16 17 17 18 19 20 20 20 21 21 20 20 20 19 19 20 20 20 21 23 24 25 27
19 18 17 16 16 15 14 13 13 13 13 14 14 14 15 15 16 16 16 16 16 17 18 19 19 19 19 20 20 19 19 19 20 19 19 20 20 21 21 22 23 24 25
18 17 16 16 16 14 13 13 12 12 13 13 13 14 14 15 15 16 16 16 17 18 18 19 19 19 19 19 19 18 18 18 19 19 19 19 20 21 21 22 23 24 24
17 17 16 16 15 14 13 12 12 12 12 13 14 14 14 15 15 15 16 17 18 18 19 19 19 19 19 18 17 17 17 17 18 18 18 18 19 20 21 21 21 21 21
17 16 15 14 14 13 11 11 11 12 13 13 13 14 15 15 15 16 17 18 18 19 19 20 20 19 19 18 18 17 17 17 17 17 17 18 18 18 19 19 20 20 20
16 15 14 13 12 12 11 10 11 12 12 13 13 14 14 15 16 16 17 17 17 17 18 19 19 19 19 18 18 17 17 17 17 16 17 18 18 19 19 19 19 19 20
13 13 12 11 10 10 9 10 11 11 12 13 13 13 14 15 15 15 16 16 17 17 18 18 19 19 19 19 19 19 18 18 18 17 18 18 19 19 19 19 19 19 19
12 12 10 10 10 9 9 10 11 11 13 13 13 13 14 14 14 14 15 15 16 17 17 18 18 19 19 19 19 19 19 19 18 18 18 18 18 18 19 19 20 20 20
10 10 9 8 8 9 9 10 11 12 13 13 13 13 13 13 14 14 15 16 17 17 17 18 18 19 19 20 20 19 19 19 19 19 19 19 19 18 19 20 20 20 20
9 9 8 8 9 9 9 10 11 12 13 14 14 14 14 14 15 15 15 15 16 17 18 18 18 19 20 21 20 20 20 20 20 20 19 19 19 19 19 20 20 20 21
10 9 8 8 9 9 10 11 11 11 12 13 13 14 14 15 15 15 15 15 17 18 18 19 19 20 20 21 21 21 21 21 21 20 20 19 19 20 20 20 20 21 21
9 8 7 8 8 9 10 11 11 12 13 13 13 14 15 15 15 15 15 16 17 18 19 19 19 19 20 21 22 22 22 22 22 21 21 20 20 20 20 20 21 21 22
7 7 7 7 8 9 10 11 11 13 13 13 13 14 14 15 15 15 16 17 18 18 18 19 20 20 21 22 22 22 22 23 23 22 22 21 21 21 21 21 20 21 22
6 7 7 7 8 9 10 11 12 13 13 13 14 14 14 14 15 16 17 18 18 19 19 20 21 21 22 22 22 22 23 23 24 23 23 22 21 21 21 21 21 21 21
7 7 7 7 9 10 11 12 12 13 12 13 14 14 14 15 16 17 17 17 18 19 20 21 22 23 22 22 22 23 23 24 24 24 24 23 22 22 21 21 22 21 21
7 7 8 8 10 11 11 12 12 13 13 13 13 13 14 15 16 17 18 18 19 19 21 22 23 24 23 23 23 23 24 24 24 24 24 24 23 22 21 21 21 21 21
8 8 8 10 10 11 11 12 12 12 12 13 13 13 14 14 16 17 18 19 20 20 22 23 24 24 24 24 24 24 25 25 25 25 24 24 23 22 22 21 21 21 21
8 8 9 10 10 10 11 11 11 11 11 12 13 14 14 15 16 17 18 19 20 21 22 23 23 24 24 25 25 25 25 25 25 24 24 23 23 22 22 22 22 22 21
8 8 8 9 9 10 10 11 11 10 11 12 13 14 14 15 16 17 18 19 20 21 23 23 24 24 24 25 25 26 25 25 25 25 24 24 23 23 23 23 22 22 21
Wind_Direction
306 309 309 308 307 306 304 302 301 301 300 298 295 294 294 293 291 292 292 291 290 290 289 287 285 283 283 282 280 278 276 272 270 268 267 265 262 259 257 257 257 256 257
306 308 308 308 308 306 303 302 301 300 300 302 301 298 298 297 296 295 292 293 293 293 293 293 290 288 288 282 281 279 277 274 273 271 268 266 264 260 258 257 257 256 257
309 307 307 307 307 306 304 302 301 300 300 300 300 300 300 301 300 300 300 298 296 295 293 291 292 293 293 288 286 284 281 279 277 273 271 268 264 262 260 258 259 259 258
308 308 306 306 307 307 307 304 303 302 303 302 305 303 303 302 303 304 304 301 300 298 294 293 294 294 293 291 291 289 285 283 280 275 271 269 267 264 264 261 262 262 261
310 309 308 308 306 305 306 305 306 304 304 304 305 306 307 306 305 305 304 303 302 300 298 296 296 296 296 293 293 291 289 286 283 278 274 272 270 266 265 263 263 263 260
315 312 309 310 309 305 305 305 306 307 308 309 309 310 310 310 308 307 306 307 306 306 306 304 303 299 299 295 295 294 293 290 286 282 277 272 271 268 267 264 264 263 261
316 312 311 309 310 308 304 305 306 307 311 313 314 314 313 311 310 310 309 309 311 312 312 311 309 305 303 300 298 296 293 290 288 285 281 279 274 272 271 267 267 265 262
316 314 311 308 310 309 308 307 308 311 314 317 319 318 319 317 315 314 312 313 315 316 316 316 315 311 307 305 303 299 296 293 292 288 280 279 279 276 274 271 269 267 265
319 318 315 313 313 312 310 309 311 315 320 322 321 321 320 318 317 316 317 319 321 320 320 319 318 316 313 313 310 305 301 297 295 293 286 281 280 278 277 275 273 271 268
321 322 320 318 319 315 313 312 315 318 319 320 320 322 322 321 320 320 321 320 321 322 322 322 321 320 319 318 314 309 306 303 297 292 289 285 283 282 281 278 276 273 268
322 324 322 321 321 319 318 318 318 319 319 320 321 323 324 324 324 323 322 323 324 325 326 327 327 325 323 321 317 313 310 307 304 299 294 289 286 285 284 282 280 277 274
324 325 325 326 325 326 324 321 319 317 317 319 321 324 326 326 327 327 325 325 326 328 330 330 330 327 326 324 320 318 317 314 309 305 301 297 294 292 289 289 287 284 281
325 326 329 328 328 328 325 323 322 322 319 320 321 324 326 327 327 327 328 329 332 333 333 334 334 333 331 329 326 323 321 319 315 309 306 304 301 297 295 294 290 288 285
323 325 327 330 332 332 330 330 331 330 328 326 326 328 328 328 329 330 332 333 334 336 336 336 337 337 337 336 331 326 323 322 319 314 310 308 305 300 298 297 296 293 290
326 328 331 334 335 337 336 337 336 334 332 332 332 332 333 333 335 337 337 338 339 339 338 338 337 337 338 337 335 330 327 324 320 315 313 312 309 305 303 301 298 295 292
332 335 335 334 334 337 339 340 339 339 336 336 337 337 339 339 339 338 339 340 340 340 341 342 341 340 341 340 338 334 331 328 324 320 316 314 311 309 307 305 303 299 296
329 332 331 333 333 335 337 339 339 340 341 341 342 342 342 341 340 340 340 341 342 343 344 343 343 343 342 340 340 337 334 332 328 323 319 315 313 311 310 308 306 305 304
319 323 326 332 333 337 340 343 345 346 344 344 344 344 344 344 342 342 343 347 346 346 347 346 344 343 343 343 342 342 339 335 332 328 324 319 316 315 314 311 309 307 307
312 318 323 331 337 341 345 346 347 348 347 346 346 346 345 345 345 345 346 347 349 349 349 348 346 345 344 343 342 342 341 339 336 334 332 328 324 320 317 314 311 309 308
301 309 318 324 331 338 341 341 341 341 341 343 344 344 345 345 345 346 348 349 350 351 351 350 348 346 344 343 342 342 342 342 340 337 333 330 327 324 322 318 315 312 311
295 302 309 315 323 330 334 335 336 336 339 342 342 343 343 345 347 348 348 349 351 352 352 350 347 346 344 342 341 342 342 342 341 339 337 333 330 326 324 322 321 319 317
295 297 301 307 317 325 329 331 332 333 336 339 341 342 343 344 345 348 350 351 351 350 349 349 347 345 344 342 341 341 341 341 341 340 338 336 333 330 327 326 325 323 321
288 291 298 304 312 319 324 328 331 333 336 338 339 340 342 343 345 348 350 351 351 350 349 349 348 347 345 343 342 341 342 342 342 341 341 339 338 337 335 332 329 327 325
284 289 297 301 308 315 322 328 331 332 334 338 341 341 342 343 343 345 348 350 351 351 350 350 349 349 348 347 346 344 343 342 342 342 343 343 342 341 339 336 334 332 330
280 285 294 301 306 313 320 327 331 333 335 339 342 343 342 342 343 345 346 348 351 351 351 350 350 350 348 347 346 345 345 344 345 344 344 344 344 343 342 341 339 337 335
277 282 288 295 304 313 320 325 330 333 337 340 342 343 343 344 345 346 347 347 348 350 351 351 351 350 349 348 347 347 347 347 346 346 345 346 346 345 344 343 341 340 339